MDT,Max TemperatureF,Mean TemperatureF,Min TemperatureF,Max Dew PointF,MeanDew PointF,Min DewpointF,Max Humidity, Mean Humidity, Min Humidity, Max Sea Level PressureIn, Mean Sea Level PressureIn, Min Sea Level PressureIn, Max VisibilityMiles, Mean VisibilityMiles, Min VisibilityMiles, Max Wind SpeedMPH, Mean Wind SpeedMPH, Max Gust SpeedMPH,PrecipitationIn, CloudCover, Events, WindDirDegrees
2013-6-1,62,52,42,45,39,37,87,61,39,30.19,30.15,30.07,10,10,10,16,10,17,0.00,0,,355
2013-6-2,69,55,41,45,42,36,87,60,37,30.13,29.98,29.85,10,10,10,16,6,24,0.00,0,,94
2013-6-3,57,52,46,52,46,43,94,83,63,29.90,29.77,29.71,10,8,2,23,12,31,0.70,7,Thunderstorm,88
2013-6-4,53,48,44,46,43,41,93,81,62,30.22,30.09,29.86,10,9,4,22,14,29,0.04,8,,347
2013-6-5,64,54,44,45,42,37,82,60,42,30.22,30.17,30.10,10,10,10,10,6,,0.00,5,,292
2013-6-6,73,58,44,54,47,39,93,63,40,30.10,30.05,30.00,10,10,7,12,3,,0.00,1,,143
2013-6-7,75,60,46,57,51,43,94,72,41,30.01,29.86,29.67,10,10,1,13,5,,0.13,1,,64
2013-6-8,69,60,50,55,51,45,94,74,46,29.91,29.79,29.64,10,10,9,26,11,38,0.36,4,Thunderstorm,302
2013-6-9,78,61,44,54,49,41,93,62,36,29.94,29.84,29.72,10,10,10,15,5,25,0.00,1,,182
2013-6-10,73,63,53,55,50,46,88,63,38,29.94,29.85,29.75,10,10,10,16,11,22,0.00,0,,25
2013-6-11,78,66,53,57,51,48,88,62,34,30.04,29.92,29.86,10,10,7,21,8,28,0.13,3,Thunderstorm,68
2013-6-12,71,62,53,55,54,52,94,72,53,30.12,30.08,29.95,10,10,9,16,9,21,0.00,3,,115
2013-6-13,75,67,59,57,54,52,82,63,50,30.10,29.95,29.80,10,10,10,25,13,33,0.00,1,Thunderstorm,132
2013-6-14,71,60,48,55,50,43,94,67,43,29.97,29.88,29.75,10,10,4,26,13,34,0.11,2,Thunderstorm,277
2013-6-15,73,60,46,48,44,39,87,57,36,30.00,29.97,29.93,10,10,10,23,11,31,0.00,0,,265
2013-6-16,73,60,48,52,47,43,82,61,41,30.11,30.04,29.97,10,10,10,22,9,30,0.00,0,,307
2013-6-17,71,58,46,54,50,45,93,66,43,30.17,30.12,30.08,10,10,10,10,6,,0.00,1,,341
2013-6-18,82,65,48,59,53,46,93,61,37,30.10,29.98,29.84,10,10,10,18,7,23,0.00,0,,101
2013-6-19,87,73,59,61,58,55,88,60,35,29.83,29.71,29.59,10,10,10,25,12,36,0.00,0,,100
2013-6-20,77,66,55,63,52,43,94,65,32,29.96,29.83,29.56,10,10,10,24,14,32,0.00,2,Thunderstorm,317
2013-6-21,73,63,53,55,50,43,88,64,41,30.07,29.99,29.94,10,10,10,21,9,29,0.03,3,,22
2013-6-22,71,61,51,57,53,48,94,84,53,30.04,29.96,29.87,10,10,2,14,7,,0.25,4,,309
2013-6-23,75,64,53,55,50,46,94,68,41,29.88,29.83,29.78,10,10,10,14,8,21,0.04,3,,254
2013-6-24,84,67,50,64,58,46,87,68,51,29.80,29.70,29.59,10,10,10,15,7,20,0.00,0,,86
2013-6-25,78,68,57,64,57,52,94,67,42,29.81,29.72,29.58,10,10,10,24,10,34,0.00,0,,311
2013-6-26,80,66,53,61,53,48,88,65,39,30.02,29.90,29.81,10,10,5,24,8,29,0.00,0,,289
2013-6-27,78,66,53,55,51,46,82,58,34,30.18,30.11,30.03,10,10,9,21,8,28,0.00,0,,302
2013-6-28,82,68,53,57,52,46,82,56,37,30.23,30.19,30.16,10,10,7,18,9,24,0.00,1,,326
2013-6-29,82,66,51,55,51,46,88,56,34,30.22,30.19,30.14,10,10,9,15,6,20,0.00,1,,358
2013-6-30,82,68,53,57,53,48,88,58,35,30.21,30.19,30.16,10,10,10,14,7,16,0.00,0,,89